Location: El Abasto
(10.3790°N, 67.5897°W)
Time: 08:24:32
(UTC+00:00)

Helios 1A - Pass Details

Date: 19 May 2024
Orbit: 570 x 580 km, 98.3° (Epoch: 30 March)

Event Time Altitude Azimuth Distance (km) Brightness Sun altitude
Rises 23:05:13 0° 2° (N) 2,768 6.7 -5.3°
Reaches altitude 10° 23:07:25 10° 356° (N) 1,872 5.9 -5.8°
Maximum altitude 23:11:17 45° 283° (WNW) 783 4.3 -6.7°
Drops below altitude 10° 23:15:10 10° 210° (SSW) 1,877 5.6 -7.5°
Sets 23:17:23 0° 204° (SSW) 2,775 6.4 -8.1°
